[[{"header":{"parameterUnit":"m.s-1","parameterCategory":1,"la1":30.2991,"la2":30.254,"lo1":-89.0895,"lo2":-89.0444,"dy":0.0017,"dx":0.0017,"nx":28,"ny":28,"refTime":"2023-10-01T03:00:00:Z","depth":0,"parameterNumber":2,"parameterNumberName":"U-component_of_WINDS"},"data":[0,0,0,0,0,0,0,0,0,0,0,0,0,0,0,0,0,0,0,0,0,0,0,0,0,0,0,0,0,0,0,0,0,0,0,0,0,0,0,0,0,0,0,0,0,0,0,0,0,0,0,0,0,0,0,0,0,0,-4.5425,-4.5426,0,-4.5436,-4.5436,-4.5436,-4.5273,-4.5268,-4.5264,-4.526,-4.5271,-4.5275,-4.528,0,0,0,0,0,0,0,0,0,0,0,0,0,-4.5266,-4.527,-4.5425,-4.5426,-4.5426,-4.5436,-4.5436,-4.5436,-4.5274,-4.5268,-4.5263,-4.5258,-4.527,-4.5275,-4.528,0,0,0,0,0,0,0,0,0,0,0,0,0,-4.5312,-4.5271,-4.5425,-4.5346,-4.5339,-4.5436,-4.5436,-4.5436,-4.5275,-4.5268,-4.5262,-4.5255,-4.5268,-4.5274,-4.5281,-4.5454,0,0,-4.5301,-4.5304,0,0,0,0,0,0,0,0,-4.531,-4.5318,-4.5357,-4.5352,-4.5344,-4.5346,-4.5383,-4.5442,-4.5276,-4.5299,-4.526,-4.5252,-4.5301,-4.5305,-4.5321,-4.5455,-4.5455,-4.5302,-4.5306,-4.5308,-4.531,0,0,0,0,0,0,0,-4.5307,-4.5317,-4.5429,-4.5358,-4.535,-4.531,-4.5309,-4.5394,-4.5337,-4.5297,-4.5285,-4.5288,-4.5296,-4.5315,-4.532,-4.5455,-4.5301,-4.5307,-4.5311,-4.5314,-4.5732,-4.5739,0,0,0,0,0,0,-4.5314,-4.5315,-4.5429,-4.543,-4.531,-4.5318,-4.5317,-4.5352,-4.5336,-4.5327,-4.5294,-4.5281,-4.5307,-4.5313,-4.532,-4.5523,-4.5308,-4.5315,-4.5318,-4.5725,-4.5734,-4.5742,0,0,0,0,0,0,-4.5311,-4.5326,-4.5429,-4.5369,-4.5379,-4.5328,-4.5368,-4.5356,-4.5374,-4.5334,-4.5323,-4.5324,-4.5302,-4.5311,-4.5422,-4.5521,-4.5318,-4.5324,-4.5717,-4.5728,-4.5738,-4.5929,0,0,0,0,0,0,-4.5308,-4.5326,-4.5391,-4.5372,-4.5383,-4.5531,-4.5374,-4.5361,-4.5386,-4.5369,-4.5359,-4.5351,-4.5298,-4.5413,-4.5429,-4.5526,-4.5329,-4.5708,-4.5722,-4.5734,-4.5914,-4.5945,-4.5972,0,0,0,0,0,-4.5302,-4.5444,-4.5395,-4.541,-4.5463,-4.5537,-4.5543,-4.5479,-4.5395,-4.546,-4.5434,-4.5351,-4.5508,-4.5426,-4.5442,-4.5543,-4.5701,-4.5718,-4.5733,-4.5901,-4.5939,-4.5971,0,0,0,0,0,0,-4.5476,-4.544,-4.5385,-4.5525,-4.5536,-4.5509,-4.5589,-4.5521,-4.5556,-4.5538,-4.5457,-4.5456,-4.5581,-4.5573,-4.5483,-4.571,-4.559,-4.561,-4.5711,-4.5747,-4.5776,-4.5775,-4.5334,0,0,0,0,0,-4.5531,-4.5593,-4.5558,-4.5685,-4.5693,-4.5641,-4.5671,-4.5621,-4.5628,-4.5631,-4.5613,-4.5624,-4.5675,-4.571,-4.5755,-4.5912,-4.5908,-4.5989,-4.6018,-4.6042,-4.6061,-4.6144,-4.618,-4.5794,-4.5794,-4.5794,0,0,-4.5644,-4.5632,-4.5677,-4.572,-4.5722,-4.5789,-4.5646,-4.5722,-4.5771,-4.5643,-4.5747,-4.5735,-4.5741,-4.5876,-4.5934,-4.5873,-4.6166,-4.6063,-4.6082,-4.6088,-4.6164,-4.6201,-4.6233,-4.5805,-4.5803,-4.5802,0,0,-4.5885,-4.5883,-4.5988,-4.5993,-4.5998,-4.5962,-4.5988,-4.5973,-4.596,-4.6063,-4.5968,-4.6025,-4.6115,-4.6124,-4.614,-4.6387,-4.6312,-4.6403,-4.6555,-4.6637,-4.6668,-4.6694,-4.6783,-4.6815,-4.6422,-4.6422,-4.6423,0,-4.6026,-4.6122,-4.6051,-4.6135,-4.6157,-4.6044,-4.6151,-4.6159,-4.6179,-4.6197,-4.6128,-4.6239,-4.6235,-4.6371,-4.6431,-4.6448,-4.6475,-4.6404,-4.6669,-4.6695,-4.6718,-4.6802,-4.6835,-4.6433,-4.6432,-4.6431,-4.643,0,-4.6295,-4.6364,-4.6449,-4.6471,-4.6503,-4.6598,-4.6541,-4.6582,-4.653,-4.6502,-4.6609,-4.6601,-4.6643,-4.6671,-4.662,-4.6801,-4.6762,-4.6683,-4.6559,-4.6768,-4.6845,-4.6876,-4.6449,-4.6445,-4.6442,-4.6439,0,0,-4.6645,-4.6628,-4.666,-4.6669,-4.6667,-4.6719,-4.6809,-4.685,-4.6887,-4.6904,-4.6978,-4.7058,-4.6984,-4.7003,-4.6952,-4.7025,-4.7221,-4.6935,-4.6934,-4.6989,-4.742,-4.7481,-4.7519,-4.7172,-4.7177,-4.7182,-4.742,0,-4.688,-4.7033,-4.6972,-4.713,-4.7193,-4.7087,-4.7166,-4.7173,-4.715,-4.7201,-4.7174,-4.7233,-4.713,-4.7141,-4.7208,-4.7183,-4.7307,-4.7165,-4.724,-4.7244,-4.7242,-4.7559,-4.7623,-4.7848,-4.745,-4.7455,-4.7458,0,-4.7174,-4.7204,-4.7369,-4.7357,-4.7381,-4.7453,-4.7486,-4.7535,-4.7542,-4.752,-4.7542,-4.7476,-4.7564,-4.7442,-4.7562,-4.7468,-4.7495,-4.7488,-4.7495,-4.7499,-4.7364,-4.7573,-4.7918,-4.7953,-4.7505,-4.7501,-4.7498,0,-4.7414,-4.7496,-4.7605,-4.7616,-4.7604,-4.7657,-4.7655,-4.7655,-4.7684,-4.7713,-4.7731,-4.777,-4.7792,-4.7824,-4.7771,-4.7687,-4.79,-4.7773,-4.7885,-4.7887,-4.7935,-4.7932,-4.829,-4.7952,-4.7952,-4.7951,-4.795,0,-4.7683,-4.7788,-4.7713,-4.778,-4.7895,-4.7824,-4.794,-4.7926,-4.7927,-4.799,-4.7901,-4.7963,-4.7888,-4.7942,-4.7901,-4.8008,-4.8019,-4.8004,-4.7992,-4.8012,-4.8014,-4.8029,-4.8012,-4.796,-4.7958,-4.7956,-4.7955,0,-4.797,-4.7924,-4.8036,-4.8016,-4.8013,-4.8099,-4.8081,-4.8143,-4.8114,-4.8195,-4.821,-4.8165,-4.8224,-4.8174,-4.8232,-4.8204,-4.8347,-4.8312,-4.8345,-4.8335,-4.845,-4.8441,-4.883,-4.8878,-4.851,-4.8513,-4.8516,0,-4.8144,-4.8223,-4.8211,-4.8247,-4.8251,-4.831,-4.8339,-4.8273,-4.8307,-4.8321,-4.8382,-4.8434,-4.8472,-4.8572,-4.8545,-4.8589,-4.8554,-4.8688,-4.856,-4.8579,-4.8557,-4.8554,-4.8561,-4.8714,-4.8718,-4.8722,-4.8725,0,-4.846,-4.8433,-4.8478,-4.8517,-4.8555,-4.8582,-4.8601,-4.8636,-4.8568,-4.8612,-4.8672,-4.8701,-4.8761,-4.8814,-4.8849,-4.8846,-4.8776,-4.8765,-4.8794,-4.8815,-4.8831,-4.8825,-4.8416,-4.8757,-4.8753,-4.8751,-4.8749,-4.8748,-4.8696,-4.8761,-4.8764,-4.8818,-4.8826,-4.8847,-4.8904,-4.8883,-4.8931,-4.8974,-4.8932,-4.9006,-4.9011,-4.9051,-4.9057,-4.9114,-4.9058,-4.9099,-4.911,-4.9121,-4.9138,-4.8823,-4.912,-4.9119,-4.9118,-4.9117,-4.9116,0,-4.9007,-4.9003,-4.9054,-4.9085,-4.9128,-4.9057,-4.9076,-4.9117,-4.9182,-4.9193,-4.9233,-4.9302,-4.9354,-4.9331,-4.9376,-4.9426,-4.9395,-4.944,-4.9436,-4.9437,-4.9185,-4.9156,-4.9465,-4.9465,-4.9465,-4.9465,-4.9465,-4.9464,-4.9174,-4.9281,-4.9255,-4.9365,-4.9361,-4.9432,-4.9449,-4.9468,-4.9477,-4.9559,-4.9601,-4.9586,-4.9583,-4.9628,-4.9672,-4.9664,-4.9685,-4.9743,-4.9724,-4.9489,-4.9454,-4.9422,-4.9394,-4.9748,-4.9749,-4.9971,-4.9973,-4.9975]},{"header":{"parameterUnit":"m.s-1","parameterCategory":1,"la1":30.2991,"la2":30.254,"lo1":-89.0895,"lo2":-89.0444,"dy":0.0017,"dx":0.0017,"nx":28,"ny":28,"refTime":"2023-10-01T03:00:00:Z","depth":0,"parameterNumber":3,"parameterNumberName":"V-component_of_WINDS"},"data":[0,0,0,0,0,0,0,0,0,0,0,0,0,0,0,0,0,0,0,0,0,0,0,0,0,0,0,0,0,0,0,0,0,0,0,0,0,0,0,0,0,0,0,0,0,0,0,0,0,0,0,0,0,0,0,0,0,0,1.4618,1.4618,0,1.4545,1.4544,1.4543,1.4505,1.4505,1.4505,1.4505,1.4422,1.442,1.4418,0,0,0,0,0,0,0,0,0,0,0,0,0,1.4721,1.4719,1.4619,1.4618,1.4617,1.4545,1.4544,1.4543,1.4505,1.4505,1.4505,1.4505,1.4423,1.442,1.4418,0,0,0,0,0,0,0,0,0,0,0,0,0,1.4665,1.4719,1.4619,1.4589,1.4586,1.4545,1.4544,1.4542,1.4505,1.4505,1.4505,1.4505,1.4424,1.4421,1.4417,1.4398,0,0,1.4408,1.4406,0,0,0,0,0,0,0,0,1.4668,1.4661,1.4595,1.4591,1.4587,1.4534,1.455,1.4494,1.4505,1.4535,1.4505,1.4505,1.4459,1.4453,1.4439,1.4394,1.4391,1.4407,1.4405,1.4404,1.4403,0,0,0,0,0,0,0,1.4672,1.4664,1.4589,1.4594,1.4589,1.4578,1.457,1.4539,1.4498,1.4533,1.453,1.4522,1.4457,1.4442,1.4437,1.439,1.4407,1.4404,1.4402,1.4401,1.4326,1.4326,0,0,0,0,0,0,1.4681,1.4667,1.4591,1.4587,1.4629,1.4576,1.4567,1.4551,1.4498,1.449,1.4522,1.452,1.4448,1.4441,1.4434,1.4408,1.4404,1.4401,1.4399,1.4326,1.4326,1.4326,0,0,0,0,0,0,1.4684,1.4675,1.4594,1.4626,1.4615,1.4574,1.4557,1.455,1.4535,1.449,1.4482,1.4515,1.4447,1.4438,1.4408,1.4404,1.4399,1.4396,1.4326,1.4326,1.4326,1.4356,0,0,0,0,0,0,1.4687,1.4676,1.467,1.4627,1.4614,1.4572,1.4557,1.4548,1.453,1.4527,1.4481,1.4474,1.4447,1.4413,1.4405,1.44,1.4394,1.4326,1.4326,1.4326,1.4355,1.4357,1.4359,0,0,0,0,0,1.4691,1.4679,1.4669,1.466,1.4605,1.4572,1.4564,1.4535,1.453,1.4522,1.4494,1.4475,1.4407,1.441,1.4401,1.4395,1.4326,1.4326,1.4326,1.4355,1.4357,1.4359,0,0,0,0,0,0,1.472,1.4673,1.4662,1.4637,1.4609,1.4565,1.4555,1.4538,1.4509,1.4508,1.4471,1.4461,1.4434,1.4411,1.4416,1.4374,1.4364,1.4362,1.4389,1.4391,1.4393,1.4398,1.4391,0,0,0,0,0,1.4724,1.4703,1.4662,1.4644,1.4631,1.4596,1.458,1.456,1.4529,1.4516,1.4485,1.4454,1.4426,1.4407,1.4378,1.4352,1.4341,1.4344,1.4345,1.4347,1.4345,1.433,1.433,1.4326,1.4326,1.4326,0,0,1.4731,1.4703,1.4691,1.4649,1.4625,1.4603,1.4586,1.4562,1.4544,1.4512,1.4482,1.4459,1.4421,1.4393,1.4379,1.4373,1.4344,1.4347,1.4349,1.4346,1.433,1.433,1.4331,1.4325,1.4325,1.4326,0,0,1.4733,1.471,1.4693,1.467,1.4635,1.4612,1.4608,1.4567,1.4551,1.4521,1.4497,1.4474,1.4426,1.44,1.4381,1.4375,1.4356,1.4367,1.4375,1.4361,1.4361,1.4361,1.4359,1.4358,1.4365,1.4365,1.4365,0,1.4746,1.4712,1.4685,1.4663,1.4645,1.4618,1.4599,1.4578,1.4534,1.4522,1.4516,1.4456,1.4429,1.4394,1.4394,1.4379,1.4372,1.4371,1.4364,1.4363,1.4363,1.436,1.4359,1.4367,1.4367,1.4366,1.4366,0,1.4729,1.4707,1.4697,1.4658,1.4639,1.4619,1.4587,1.4571,1.4553,1.453,1.45,1.4467,1.4431,1.4422,1.4403,1.4385,1.4383,1.4371,1.4361,1.4366,1.4362,1.4361,1.4369,1.4368,1.4368,1.4368,0,0,1.4746,1.4695,1.4691,1.4674,1.4634,1.4615,1.4594,1.4561,1.4548,1.4519,1.4499,1.446,1.445,1.4428,1.4406,1.4394,1.4391,1.4383,1.4382,1.4386,1.4368,1.4377,1.4376,1.4379,1.4379,1.4379,1.4372,0,1.4741,1.4704,1.4679,1.4651,1.4629,1.4604,1.4585,1.4558,1.4536,1.4513,1.4488,1.4461,1.4449,1.4436,1.4422,1.4394,1.4387,1.4395,1.4359,1.4358,1.4368,1.4375,1.4383,1.4378,1.437,1.437,1.437,0,1.4731,1.4706,1.4676,1.464,1.463,1.4614,1.4582,1.4561,1.453,1.4515,1.4492,1.4471,1.4445,1.4439,1.4403,1.4409,1.4392,1.4377,1.4376,1.437,1.4363,1.4369,1.4376,1.4375,1.4367,1.4368,1.4368,0,1.4746,1.4704,1.4681,1.4667,1.4624,1.4614,1.4595,1.4564,1.4546,1.4518,1.4506,1.4475,1.4458,1.4433,1.4404,1.4402,1.4371,1.4361,1.4356,1.4357,1.435,1.435,1.4353,1.4341,1.4341,1.4341,1.4341,0,1.4743,1.4725,1.4687,1.4673,1.4653,1.4624,1.4604,1.4583,1.4555,1.4535,1.4511,1.4492,1.4455,1.4431,1.4408,1.4382,1.4374,1.436,1.4354,1.4362,1.4363,1.435,1.4349,1.4341,1.4341,1.4341,1.4341,0,1.4755,1.4729,1.4702,1.4665,1.4656,1.4642,1.4609,1.4594,1.4572,1.4546,1.4539,1.4503,1.4474,1.4443,1.4403,1.4387,1.4362,1.4353,1.4373,1.4369,1.4366,1.4366,1.4359,1.4357,1.4347,1.4347,1.4347,0,1.4755,1.4741,1.4704,1.469,1.4672,1.465,1.4633,1.4604,1.4587,1.4551,1.4539,1.4509,1.4484,1.4438,1.4407,1.4377,1.4367,1.4367,1.4362,1.437,1.4366,1.4367,1.4365,1.4368,1.4368,1.4368,1.4368,0,1.4757,1.4745,1.4722,1.4696,1.4677,1.4653,1.4629,1.4618,1.4585,1.4566,1.4538,1.4518,1.4479,1.4449,1.4415,1.4393,1.4374,1.4371,1.4367,1.4375,1.4387,1.438,1.4376,1.437,1.437,1.437,1.437,1.437,1.4762,1.4749,1.4721,1.4697,1.4676,1.4655,1.4638,1.4615,1.4592,1.4559,1.4543,1.4515,1.4483,1.4436,1.4416,1.4392,1.4386,1.4382,1.438,1.438,1.4382,1.4392,1.4385,1.4385,1.4385,1.4385,1.4385,0,1.4762,1.4744,1.4722,1.469,1.4671,1.4658,1.4631,1.4615,1.4591,1.4565,1.4541,1.4508,1.4479,1.4447,1.4416,1.4403,1.4394,1.4396,1.4396,1.4391,1.4389,1.4394,1.4404,1.4404,1.4404,1.4404,1.4404,1.4404,1.476,1.4738,1.4723,1.469,1.4671,1.4645,1.463,1.4609,1.4589,1.4554,1.4531,1.4511,1.4482,1.4449,1.4421,1.4413,1.4402,1.4406,1.4395,1.4393,1.4391,1.439,1.4395,1.4404,1.4404,1.4399,1.4399,1.4399]}]]